KC5AYO Weather Reports


Display with metric or nautical units.
time (UTC)temp
F
wind
direction
speed
MPH
gust
MPH
rain 1hr
in
rain 24hr
in
rain mn
in
humidity
%
barometer
mb
20260903220057 93 157 0.0 2.0 0.00 0.00 0.00 52 1012.4
20260903215541 93 317 0.0 2.0 0.00 0.00 0.00 55 1012.4
20260903215041 93 329 0.0 2.0 0.00 0.00 0.00 54 1012.3
20260903214537 93 304 0.0 3.0 0.00 0.00 0.00 55 1012.3
20260903214039 93 115 0.0 3.0 0.00 0.00 0.00 55 1012.3
20260903213538 93 270 0.0 3.0 0.00 0.00 0.00 57 1012.3
20260903213036 94 109 0.0 3.0 0.00 0.00 0.00 53 1012.4
20260903212536 94 170 0.0 3.0 0.00 0.00 0.00 54 1012.4
20260903212037 93 287 0.0 2.0 0.00 0.00 0.00 55 1012.4
20260903211536 93 261 0.0 2.0 0.00 0.00 0.00 56 1012.4
20260903211036 94 9 0.0 3.0 0.00 0.00 0.00 51 1012.5
20260903210538 94 150 0.0 3.0 0.00 0.00 0.00 52 1012.5
20260903210036 94 161 0.0 2.0 0.00 0.00 0.00 54 1012.5
20260903205534 94 36 0.0 3.0 0.00 0.00 0.00 51 1012.5
20260903205033 94 117 0.0 3.0 0.00 0.00 0.00 51 1012.6
20260903204534 94 69 0.0 2.0 0.00 0.00 0.00 53 1012.7
20260903204033 94 173 0.0 2.0 0.00 0.00 0.00 52 1012.7
20260903203533 94 182 0.0 2.0 0.00 0.00 0.00 53 1012.7
20260903203032 94 288 0.0 3.0 0.00 0.00 0.00 54 1012.8
20260903202536 94 156 0.0 3.0 0.00 0.00 0.00 53 1012.8
20260903202032 94 306 0.0 3.0 0.00 0.00 0.00 52 1012.9
20260903201532 94 298 1.0 4.0 0.00 0.00 0.00 49 1012.9
20260903201034 94 311 1.0 4.0 0.00 0.00 0.00 51 1012.9
20260903200530 95 360 0.0 4.0 0.00 0.00 0.00 52 1013.0
20260903200042 95 106 1.0 4.0 0.00 0.00 0.00 50 1013.1
20260903195530 95 200 0.0 4.0 0.00 0.00 0.00 50 1013.2
20260903195028 95 172 0.0 2.0 0.00 0.00 0.00 53 1013.2
20260903194540 95 175 0.0 4.0 0.00 0.00 0.00 52 1013.2
20260903194027 95 123 0.0 3.0 0.00 0.00 0.00 52 1013.4
20260903193528 95 231 0.0 3.0 0.00 0.00 0.00 54 1013.3
20260903193026 95 134 0.0 2.0 0.00 0.00 0.00 51 1013.3
20260903192527 94 302 0.0 4.0 0.00 0.00 0.00 54 1013.5
20260903192025 95 296 0.0 4.0 0.00 0.00 0.00 52 1013.5
20260903191525 95 150 0.0 2.0 0.00 0.00 0.00 50 1013.5
20260903191025 95 310 0.0 2.0 0.00 0.00 0.00 52 1013.5
20260903190527 95 193 0.0 2.0 0.00 0.00 0.00 51 1013.6
20260903190025 94 302 0.0 3.0 0.00 0.00 0.00 54 1013.4
20260903185524 94 204 0.0 5.0 0.00 0.00 0.00 50 1013.5
20260903185125 95 306 0.0 5.0 0.00 0.00 0.00 51 1013.7
20260903184523 95 33 0.0 3.0 0.00 0.00 0.00 52 1013.6
20260903184022 95 136 0.0 4.0 0.00 0.00 0.00 51 1013.7
20260903183522 94 308 0.0 6.0 0.00 0.00 0.00 52 1013.7
20260903183035 95 309 1.0 3.0 0.00 0.00 0.00 54 1013.7
20260903182526 95 169 0.0 6.0 0.00 0.00 0.00 51 1013.6
20260903182021 95 188 1.0 5.0 0.00 0.00 0.00 49 1013.7
20260903181525 95 226 0.0 5.0 0.00 0.00 0.00 51 1013.8
20260903181019 95 273 1.0 5.0 0.00 0.00 0.00 51 1013.7
20260903180518 95 286 0.0 3.0 0.00 0.00 0.00 53 1013.9
20260903180019 95 300 1.0 5.0 0.00 0.00 0.00 53 1013.9
20260903175517 94 9 1.0 5.0 0.00 0.00 0.00 52 1013.9
20260903175016 94 250 0.0 5.0 0.00 0.00 0.00 55 1014.0
20260903174520 94 253 0.0 3.0 0.00 0.00 0.00 55 1014.1
20260903174017 94 300 1.0 3.0 0.00 0.00 0.00 53 1014.0
20260903173514 94 130 0.0 6.0 0.00 0.00 0.00 55 1014.1
20260903173012 94 224 1.0 4.0 0.00 0.00 0.00 56 1014.2
20260903172513 93 174 1.0 3.0 0.00 0.00 0.00 55 1014.3
20260903172011 93 18 0.0 3.0 0.00 0.00 0.00 55 1014.4
20260903171517 93 36 0.0 3.0 0.00 0.00 0.00 57 1014.4
20260903171009 93 261 0.0 3.0 0.00 0.00 0.00 59 1014.4
20260903170511 93 298 0.0 3.0 0.00 0.00 0.00 58 1014.5
20260903170013 93 138 0.0 3.0 0.00 0.00 0.00 58 1014.6
20260903165505 93 224 0.0 2.0 0.00 0.00 0.00 58 1014.7
20260903165004 93 298 0.0 2.0 0.00 0.00 0.00 61 1014.6
20260903164503 93 303 0.0 2.0 0.00 0.00 0.00 59 1014.7
20260903164004 92 315 0.0 3.0 0.00 0.00 0.00 62 1014.8
20260903163600 92 254 0.0 3.0 0.00 0.00 0.00 61 1014.8
20260903163059 92 304 0.0 2.0 0.00 0.00 0.00 61 1014.9
20260903162558 91 346 0.0 2.0 0.00 0.00 0.00 64 1015.0
20260903162056 91 309 0.0 2.0 0.00 0.00 0.00 64 1015.1
20260903161613 90 299 0.0 2.0 0.00 0.00 0.00 65 1015.1
20260903161055 89 91 0.0 3.0 0.00 0.00 0.00 62 1015.1
20260903160552 89 263 0.0 3.0 0.00 0.00 0.00 67 1015.0
20260903160052 88 302 1.0 3.0 0.00 0.00 0.00 66 1015.0
20260903155551 88 305 0.0 3.0 0.00 0.00 0.00 66 1015.0
20260903155049 88 241 0.0 3.0 0.00 0.00 0.00 66 1015.0
20260903154549 88 72 0.0 3.0 0.00 0.00 0.00 66 1015.0
20260903154050 88 193 0.0 3.0 0.00 0.00 0.00 66 1015.1
20260903153548 87 171 0.0 3.0 0.00 0.00 0.00 65 1015.1
20260903153048 87 306 0.0 2.0 0.00 0.00 0.00 67 1015.0
20260903152549 87 229 0.0 4.0 0.00 0.00 0.00 71 1015.1
20260903152047 87 308 0.0 4.0 0.00 0.00 0.00 67 1015.0
20260903151547 87 171 1.0 4.0 0.00 0.00 0.00 66 1014.9
20260903151044 86 303 0.0 4.0 0.00 0.00 0.00 67 1015.0
20260903150543 86 317 0.0 4.0 0.00 0.00 0.00 70 1015.0
20260903150042 86 306 0.0 2.0 0.00 0.00 0.00 69 1015.0
20260903145542 85 255 0.0 2.0 0.00 0.00 0.00 71 1015.0
20260903145040 85 204 0.0 2.0 0.00 0.00 0.00 72 1015.0
20260903144541 85 313 0.0 2.0 0.00 0.00 0.00 73 1015.0
20260903144039 85 114 0.0 2.0 0.00 0.00 0.00 72 1015.1
20260903143539 84 124 0.0 2.0 0.00 0.00 0.00 72 1015.1
20260903143041 84 164 0.0 1.0 0.00 0.00 0.00 75 1015.0
20260903142539 84 166 0.0 2.0 0.00 0.00 0.00 74 1015.0
20260903142035 83 140 0.0 2.0 0.00 0.00 0.00 77 1015.0
20260903141534 83 151 0.0 2.0 0.00 0.00 0.00 76 1015.0
20260903141032 82 140 0.0 2.0 0.00 0.00 0.00 79 1015.0
20260903140531 82 165 0.0 2.0 0.00 0.00 0.00 79 1015.0
20260903140030 81 263 0.0 2.0 0.00 0.00 0.00 80 1015.1
20260903135528 81 288 0.0 2.0 0.00 0.00 0.00 83 1015.1
20260903135028 80 265 0.0 0.0 0.00 0.00 0.00 82 1015.1
20260903134528 80 178 0.0 0.0 0.00 0.00 0.00 83 1015.2
20260903134024 80 206 0.0 0.0 0.00 0.00 0.00 84 1015.2
20260903133524 79 119 0.0 0.0 0.00 0.00 0.00 84 1015.2
20260903133023 79 220 0.0 0.0 0.00 0.00 0.00 84 1015.3
20260903132521 78 254 0.0 0.0 0.00 0.00 0.00 85 1015.3
20260903132020 78 254 0.0 2.0 0.00 0.00 0.00 86 1015.3
20260903131523 78 254 0.0 2.0 0.00 0.00 0.00 86 1015.4
20260903131020 77 267 0.0 0.0 0.00 0.00 0.00 87 1015.4
20260903130522 77 194 0.0 0.0 0.00 0.00 0.00 87 1015.5
20260903130018 76 194 0.0 0.0 0.00 0.00 0.00 88 1015.5
20260903125518 76 194 0.0 0.0 0.00 0.00 0.00 88 1015.6
20260903125018 76 194 0.0 0.0 0.00 0.00 0.00 89 1015.5
20260903124531 76 223 0.0 0.0 0.00 0.00 0.00 89 1015.5
20260903124016 76 223 0.0 0.0 0.00 0.00 0.00 89 1015.5
20260903123516 75 223 0.0 0.0 0.00 0.00 0.00 90 1015.5
20260903123016 75 223 0.0 0.0 0.00 0.00 0.00 90 1015.7
20260903122517 75 232 0.0 0.0 0.00 0.00 0.00 91 1015.6
20260903122015 75 232 0.0 0.0 0.00 0.00 0.00 92 1015.7
20260903121533 74 232 0.0 0.0 0.00 0.00 0.00 92 1015.6
20260903121017 74 232 0.0 0.0 0.00 0.00 0.00 92 1015.5
20260903120513 74 232 0.0 0.0 0.00 0.00 0.00 92 1015.4
20260903120012 74 232 0.0 0.0 0.00 0.00 0.00 92 1015.4
20260903115511 74 232 0.0 0.0 0.00 0.00 0.00 92 1015.3
20260903115011 74 232 0.0 0.0 0.00 0.00 0.00 92 1015.4
20260903114511 74 232 0.0 0.0 0.00 0.00 0.00 92 1015.4
20260903114010 74 232 0.0 0.0 0.00 0.00 0.00 92 1015.3
20260903113509 74 232 0.0 0.0 0.00 0.00 0.00 92 1015.2
20260903113015 74 232 0.0 0.0 0.00 0.00 0.00 91 1015.2
20260903112509 74 232 0.0 2.0 0.00 0.00 0.00 92 1015.1
20260903112008 74 153 0.0 2.0 0.00 0.00 0.00 91 1015.1
20260903111508 74 148 0.0 0.0 0.00 0.00 0.00 91 1015.0
20260903111007 74 148 0.0 0.0 0.00 0.00 0.00 90 1015.0
20260903110508 74 148 0.0 0.0 0.00 0.00 0.00 90 1014.9
20260903110006 74 224 0.0 0.0 0.00 0.00 0.00 90 1014.9
20260903105505 74 226 0.0 0.0 0.00 0.00 0.00 90 1014.9
20260903105006 74 225 0.0 0.0 0.00 0.00 0.00 90 1014.8
20260903104505 74 217 0.0 0.0 0.00 0.00 0.00 90 1014.7
20260903104005 74 185 0.0 0.0 0.00 0.00 0.00 90 1014.8
20260903103506 74 204 0.0 0.0 0.00 0.00 0.00 90 1014.7
20260903103004 74 204 0.0 0.0 0.00 0.00 0.00 91 1014.6
20260903102503 74 204 0.0 0.0 0.00 0.00 0.00 90 1014.6
20260903102004 74 204 0.0 0.0 0.00 0.00 0.00 91 1014.5
20260903101502 74 204 0.0 0.0 0.00 0.00 0.00 90 1014.6
20260903101002 74 204 0.0 0.0 0.00 0.00 0.00 91 1014.6
20260903100502 74 204 0.0 0.0 0.00 0.00 0.00 90 1014.6
20260903100005 74 204 0.0 0.0 0.00 0.00 0.00 90 1014.6
20260903095504 74 204 0.0 0.0 0.00 0.00 0.00 90 1014.5
20260903095003 75 204 0.0 0.0 0.00 0.00 0.00 90 1014.5
20260903094610 75 204 0.0 0.0 0.00 0.00 0.00 90 1014.6
20260903094103 75 204 0.0 0.0 0.00 0.00 0.00 90 1014.5
20260903093601 75 204 0.0 0.0 0.00 0.00 0.00 90 1014.6
20260903093103 75 204 0.0 0.0 0.00 0.00 0.00 90 1014.5
20260903092559 75 204 0.0 0.0 0.00 0.00 0.00 90 1014.6
20260903092059 75 204 0.0 0.0 0.00 0.00 0.00 90 1014.6
20260903091605 75 204 0.0 0.0 0.00 0.00 0.00 90 1014.5
20260903091057 75 204 0.0 0.0 0.00 0.00 0.00 89 1014.6
20260903090556 75 204 0.0 2.0 0.00 0.00 0.00 89 1014.5
20260903090057 75 204 0.0 2.0 0.00 0.00 0.00 89 1014.6
20260903085556 76 204 0.0 2.0 0.00 0.00 0.00 89 1014.5
20260903085055 76 204 0.0 0.0 0.00 0.00 0.00 89 1014.6
20260903084555 76 204 0.0 0.0 0.00 0.00 0.00 89 1014.5
20260903084054 76 204 0.0 2.0 0.00 0.00 0.00 89 1014.6
20260903083554 76 204 0.0 1.0 0.00 0.00 0.00 89 1014.4
20260903083059 76 213 0.0 2.0 0.00 0.00 0.00 88 1014.5
20260903082553 76 213 0.0 2.0 0.00 0.00 0.00 88 1014.6
20260903082053 76 169 0.0 2.0 0.00 0.00 0.00 88 1014.6
20260903081553 76 190 0.0 0.0 0.00 0.00 0.00 87 1014.6
20260903081052 76 190 0.0 0.0 0.00 0.00 0.00 87 1014.6
20260903080552 76 190 0.0 0.0 0.00 0.00 0.00 87 1014.6
20260903080050 77 191 0.0 0.0 0.00 0.00 0.00 87 1014.5
20260903075549 77 192 0.0 0.0 0.00 0.00 0.00 87 1014.5
20260903075053 77 192 0.0 0.0 0.00 0.00 0.00 87 1014.3
20260903074549 77 192 0.0 1.0 0.00 0.00 0.00 87 1014.4
20260903074049 77 192 0.0 1.0 0.00 0.00 0.00 87 1014.4
20260903073549 77 190 0.0 0.0 0.00 0.00 0.00 87 1014.3
20260903073108 77 190 0.0 0.0 0.00 0.00 0.00 87 1014.2
20260903072548 77 190 0.0 0.0 0.00 0.00 0.00 87 1014.3
20260903072048 77 190 0.0 1.0 0.00 0.00 0.00 87 1014.3
20260903071549 77 190 0.0 1.0 0.00 0.00 0.00 87 1014.2
20260903071047 77 190 0.0 0.0 0.00 0.00 0.00 87 1014.3
20260903070549 77 190 0.0 0.0 0.00 0.00 0.00 87 1014.2
20260903070047 77 190 0.0 0.0 0.00 0.00 0.00 88 1014.3
20260903065547 77 190 0.0 0.0 0.00 0.00 0.00 88 1014.1
20260903065046 77 190 0.0 0.0 0.00 0.00 0.00 88 1014.2
20260903064553 77 190 0.0 0.0 0.00 0.00 0.00 88 1014.3
20260903064047 77 190 0.0 2.0 0.00 0.00 0.00 88 1014.3
20260903063546 77 190 0.0 2.0 0.00 0.00 0.00 88 1014.2
20260903063046 77 190 0.0 0.0 0.00 0.00 0.00 88 1014.3
20260903062546 77 190 0.0 0.0 0.00 0.00 0.00 88 1014.3
20260903062044 77 190 0.0 0.0 0.00 0.00 0.00 88 1014.3
20260903061545 77 190 0.0 0.0 0.00 0.00 0.00 88 1014.2
20260903061044 77 190 0.0 0.0 0.00 0.00 0.00 88 1014.2
20260903060544 77 190 0.0 0.0 0.00 0.00 0.00 88 1014.3
20260903060043 77 190 0.0 0.0 0.00 0.00 0.00 87 1014.3
20260903055643 78 190 0.0 0.0 0.00 0.00 0.00 87 1014.2
20260903055045 78 190 0.0 0.0 0.00 0.00 0.00 87 1014.3
20260903054542 78 190 0.0 0.0 0.00 0.00 0.00 87 1014.3
20260903054041 78 190 0.0 0.0 0.00 0.00 0.00 86 1014.2
20260903053540 78 190 0.0 0.0 0.00 0.00 0.00 86 1014.2
20260903053045 78 190 0.0 0.0 0.00 0.00 0.00 87 1014.2
20260903052539 78 190 0.0 0.0 0.00 0.00 0.00 86 1014.2
20260903052039 78 190 0.0 0.0 0.00 0.00 0.00 86 1014.1
20260903051539 78 190 0.0 0.0 0.00 0.00 0.00 85 1014.1
20260903051038 78 190 0.0 0.0 0.00 0.00 0.00 86 1014.1
20260903050542 78 190 0.0 0.0 0.00 0.00 0.00 85 1014.1
20260903050037 79 190 0.0 0.0 0.00 0.00 0.00 85 1014.1
20260903045536 79 190 0.0 0.0 0.00 0.00 0.00 85 1014.1
20260903045038 78 190 0.0 0.0 0.00 0.00 0.00 86 1014.1
20260903044537 78 190 0.0 0.0 0.00 0.00 0.00 86 1014.0
20260903044039 78 190 0.0 0.0 0.00 0.00 0.00 86 1014.1
20260903043535 79 190 0.0 0.0 0.00 0.00 0.00 86 1014.0
20260903043045 79 190 0.0 0.0 0.00 0.00 0.00 86 1014.1
20260903042535 79 190 0.0 0.0 0.00 0.00 0.00 85 1014.0
20260903042035 79 190 0.0 0.0 0.00 0.00 0.00 85 1014.0
20260903041536 79 190 0.0 0.0 0.00 0.00 0.00 85 1014.0
20260903041034 79 190 0.0 0.0 0.00 0.00 0.00 86 1014.0
20260903040533 79 190 0.0 0.0 0.00 0.00 0.00 86 1014.0
20260903040032 79 190 0.0 0.0 0.00 0.00 0.00 86 1014.1
20260903035533 79 190 0.0 0.0 0.00 0.00 0.00 86 1014.0
20260903035032 79 190 0.0 0.0 0.00 0.00 0.00 86 1014.0
20260903034532 79 190 0.0 0.0 0.00 0.00 0.00 86 1014.1
20260903034031 79 190 0.0 0.0 0.00 0.00 0.00 86 1014.1
20260903033533 79 190 0.0 0.0 0.00 0.00 0.00 86 1014.1
20260903033031 79 190 0.0 0.0 0.00 0.00 0.00 86 1014.1
20260903032532 79 190 0.0 0.0 0.00 0.00 0.00 87 1014.0
20260903032035 79 190 0.0 0.0 0.00 0.00 0.00 87 1014.0
20260903031542 79 190 0.0 0.0 0.00 0.00 0.00 87 1014.0
20260903031031 80 190 0.0 0.0 0.00 0.00 0.00 88 1014.2
20260903030533 80 190 0.0 0.0 0.00 0.00 0.00 87 1014.1
20260903030031 80 190 0.0 0.0 0.00 0.00 0.00 86 1014.1
20260903025532 80 190 0.0 0.0 0.00 0.00 0.00 86 1014.0
20260903025030 80 190 0.0 0.0 0.00 0.00 0.00 86 1014.0
20260903024530 80 190 0.0 0.0 0.00 0.00 0.00 86 1014.1
20260903024031 80 190 0.0 0.0 0.00 0.00 0.00 85 1014.1
20260903023533 80 190 0.0 0.0 0.00 0.00 0.00 85 1014.1
20260903023030 81 190 0.0 0.0 0.00 0.00 0.00 85 1014.2
20260903022530 81 190 0.0 0.0 0.00 0.00 0.00 84 1014.0
20260903022029 81 190 0.0 0.0 0.00 0.00 0.00 83 1014.1
20260903021529 81 190 0.0 0.0 0.00 0.00 0.00 83 1014.2
20260903021029 81 190 0.0 0.0 0.00 0.00 0.00 83 1014.2
20260903020529 81 190 0.0 0.0 0.00 0.00 0.00 83 1014.2
20260903020038 82 190 0.0 0.0 0.00 0.00 0.00 83 1014.2
20260903015530 82 190 0.0 0.0 0.00 0.00 0.00 82 1014.1
20260903015028 82 190 0.0 0.0 0.00 0.00 0.00 81 1014.2
20260903014528 82 190 0.0 0.0 0.00 0.00 0.00 81 1014.2
20260903014033 82 190 0.0 0.0 0.00 0.00 0.00 81 1014.1
20260903013529 82 190 0.0 0.0 0.00 0.00 0.00 80 1014.0
20260903013028 82 190 0.0 0.0 0.00 0.00 0.00 80 1014.1
20260903012527 83 190 0.0 0.0 0.00 0.00 0.00 79 1014.1
20260903012028 83 190 0.0 0.0 0.00 0.00 0.00 79 1013.9
20260903011528 83 190 0.0 0.0 0.00 0.00 0.00 79 1013.8
20260903011028 83 190 0.0 0.0 0.00 0.00 0.00 78 1013.8
20260903010527 83 190 0.0 0.0 0.00 0.00 0.00 77 1013.7
20260903010027 84 190 0.0 0.0 0.00 0.00 0.00 76 1013.7
20260903005527 84 190 0.0 0.0 0.00 0.00 0.00 76 1013.7
20260903005027 84 190 0.0 0.0 0.00 0.00 0.00 76 1013.6
20260903004527 84 190 0.0 0.0 0.00 0.00 0.00 76 1013.6
20260903004026 84 190 0.0 0.0 0.00 0.00 0.00 75 1013.6
20260903003526 85 190 0.0 0.0 0.00 0.00 0.00 75 1013.6
20260903003026 85 190 0.0 0.0 0.00 0.00 0.00 73 1013.6
20260903002530 85 190 0.0 0.0 0.00 0.00 0.00 73 1013.5
20260903002025 86 190 0.0 0.0 0.00 0.00 0.00 71 1013.6
20260903001525 86 190 0.0 0.0 0.00 0.00 0.00 71 1013.6
20260903001024 87 190 0.0 0.0 0.00 0.00 0.00 70 1013.6
20260903000524 87 190 0.0 2.0 0.00 0.00 0.00 69 1013.6
20260903000032 88 195 0.0 2.0 0.00 0.00 0.00 67 1013.6
20260902235524 88 206 0.0 2.0 0.00 0.00 0.00 68 1013.6
20260902235023 88 237 0.0 2.0 0.00 0.00 0.00 66 1013.6
20260902234527 89 247 0.0 2.0 0.00 0.00 0.00 65 1013.6
20260902234023 89 210 0.0 1.0 0.00 0.00 0.00 66 1013.6
20260902233622 89 157 0.0 0.0 0.00 0.00 0.00 66 1013.6
20260902233022 90 168 0.0 0.0 0.00 0.00 0.00 64 1013.6
20260902232524 90 168 0.0 0.0 0.00 0.00 0.00 63 1013.5
20260902232021 90 178 0.0 0.0 0.00 0.00 0.00 63 1013.6
20260902231524 91 135 0.0 0.0 0.00 0.00 0.00 59 1013.6
20260902231024 91 178 0.0 0.0 0.00 0.00 0.00 59 1013.7
20260902230521 91 155 0.0 0.0 0.00 0.00 0.00 59 1013.7
20260902230022 92 170 0.0 0.0 0.00 0.00 0.00 59 1013.7
20260902225521 92 172 0.0 1.0 0.00 0.00 0.00 59 1013.7
20260902225021 92 144 0.0 2.0 0.00 0.00 0.00 59 1013.6
20260902224521 92 202 0.0 2.0 0.00 0.00 0.00 58 1013.7
20260902224024 92 163 0.0 2.0 0.00 0.00 0.00 58 1013.8
20260902223520 92 314 0.0 2.0 0.00 0.00 0.00 60 1013.7
20260902223032 92 149 0.0 2.0 0.00 0.00 0.00 57 1013.8
20260902222519 93 282 0.0 2.0 0.00 0.00 0.00 57 1013.7
20260902222018 93 150 0.0 2.0 0.00 0.00 0.00 57 1013.8
20260902221521 93 249 0.0 2.0 0.00 0.00 0.00 57 1013.9
20260902221018 93 138 0.0 2.0 0.00 0.00 0.00 56 1013.9
20260902220518 93 159 0.0 2.0 0.00 0.00 0.00 55 1013.9